Zacatecas Airport, Mexico

5:27 PM CDT on September 24, 2017 (GMT -0500)
Gen Leobardo C Ruiz International

Weather History for MMZC - March, 2013

Change the Weather History Date:

Wednesday, March 27, 2013

  Actual Average Record
Temperature  
Mean Temperature 56 °F -  
Max Temperature 78 °F 74 °F 84 °F (2011)
Min Temperature 35 °F 41 °F 32 °F (2003)
Degree Days  
Heating Degree Days 8    
Growing Degree Days 6 (Base 50)    
Moisture  
Dew Point 26 °F    
Average Humidity 38    
Maximum Humidity 81    
Minimum Humidity 12    
Precipitation  
Precipitation 0.00 in - - ()
Sea Level Pressure  
Sea Level Pressure 30.28 in    
Wind  
Wind Speed 6 mph ()    
Max Wind Speed 23 mph    
Max Gust Speed 40 mph    
Visibility 10.0 miles    
Events      
Averages and records for this station are not official NWS values.
T = Trace of Precipitation, MM = Missing Value Source: Averaged Metar Reports

Daily Weather History Graph

Daily Weather History Graph

Search for Another Location

Airport or City:

Trip Planner

Search our weather history database for the weather conditions in past years. The results will help you decide how hot, cold, wet, or windy it might be!

Date:

Astronomy

Mar. 27, 2013 Rise Set
Actual Time 6:47 AM CST 7:04 PM CST
Civil Twilight 6:25 AM CST 7:27 PM CST
Nautical Twilight 5:58 AM CST 7:53 PM CST
Astronomical Twilight 5:32 AM CST 8:19 PM CST
Moon 7:40 PM CST (3/27) 6:46 AM CST (3/27)
Length of Visible Light 13h 01m
Length of Day
12h 16m
Full, 100% of the Moon is Illuminated
Mar 27
Full
Apr 2
Last Quarter
Apr 10
New
Apr 18
First Quarter
Apr 25
Full

Hourly Weather History & Observations

Time (CST) Temp. Windchill Dew Point Humidity Pressure Visibility Wind Dir Wind Speed Gust Speed Precip Events Conditions
12:52 AM 44.6 °F 43.1 °F 30.2 °F 57% 30.29 in 10.0 mi West 3.5 mph - N/A   Partly Cloudy
1:45 AM 41.0 °F - 28.4 °F 61% 30.28 in 10.0 mi Calm Calm - N/A   Clear
2:40 AM 41.0 °F - 30.2 °F 65% 30.28 in 10.0 mi Calm Calm - N/A   Clear
3:41 AM 39.2 °F 35.0 °F 30.2 °F 70% 30.28 in 10.0 mi NW 5.8 mph - N/A   Clear
4:40 AM 37.4 °F 34.9 °F 30.2 °F 75% 30.28 in 10.0 mi NNW 3.5 mph - N/A   Clear
5:40 AM 35.6 °F 32.8 °F 30.2 °F 81% 30.29 in 10.0 mi SSW 3.5 mph - N/A   Clear
6:42 AM 35.6 °F - 28.4 °F 75% 30.31 in 10.0 mi Calm Calm - N/A   Clear
7:45 AM 37.4 °F - 28.4 °F 70% 30.33 in 10.0 mi Calm Calm - N/A   Clear
8:45 AM 48.2 °F - 33.8 °F 58% 30.35 in 10.0 mi Calm Calm - N/A   Clear
10:40 AM 66.2 °F - 32.0 °F 28% 30.34 in 10.0 mi Calm Calm - N/A   Clear
12:06 PM 71.6 °F - 28.4 °F 20% 30.31 in 10.0 mi West 5.8 mph - N/A   Scattered Clouds
12:45 PM 75.2 °F - 26.6 °F 17% 30.30 in 10.0 mi WNW 13.8 mph 27.6 mph N/A   Mostly Cloudy
1:41 PM 78.8 °F - 24.8 °F 14% 30.26 in 10.0 mi SW 17.3 mph 40.3 mph N/A   Mostly Cloudy
2:41 PM 78.8 °F - 21.2 °F 12% 30.23 in 10.0 mi West 20.7 mph 32.2 mph N/A   Mostly Cloudy
3:41 PM 77.0 °F - 21.2 °F 12% 30.21 in 10.0 mi SW 17.3 mph 28.8 mph N/A   Mostly Cloudy
4:41 PM 77.0 °F - 21.2 °F 12% 30.20 in 10.0 mi WSW 23.0 mph 34.5 mph N/A   Mostly Cloudy
5:42 PM 75.2 °F - 19.4 °F 12% 30.22 in 10.0 mi West 17.3 mph 28.8 mph N/A   Scattered Clouds
6:41 PM 69.8 °F - 17.6 °F 14% 30.24 in 10.0 mi West 16.1 mph - N/A   Mostly Cloudy
7:41 PM 64.4 °F - 17.6 °F 16% 30.26 in 10.0 mi West 12.7 mph - N/A   Mostly Cloudy
8:47 PM 62.6 °F - 19.4 °F 19% 30.30 in 10.0 mi WSW 9.2 mph - N/A   Mostly Cloudy
9:46 PM 57.2 °F - 19.4 °F 23% 30.31 in 10.0 mi WSW 9.2 mph - N/A   Mostly Cloudy
10:41 PM 55.4 °F - 24.8 °F 31% 30.33 in 10.0 mi SW 5.8 mph - N/A   Mostly Cloudy
11:41 PM 55.4 °F - 28.4 °F 36% 30.33 in 10.0 mi WSW 13.8 mph - N/A   Mostly Cloudy